Regional Weather Roundup
Issued by NWS

Home | Current Version | Previous Version | Text Only | Print | Product List | Glossary Off
Versions: 1 2 3 4 5 6 7 8 9 10 11 12 13 14 15 16 17 18 19 20 21 22 23 24

000
ASUS45 KCYS 221210
RWRWY

WYOMING REGIONAL WEATHER ROUNDUP
NATIONAL WEATHER SERVICE CHEYENNE WY
600 AM MDT WED MAR 22 2017

NOTE:  "FAIR" INDICATES FEW OR NO CLOUDS BELOW 12,000 FEET
WITH NO SIGNIFICANT WEATHER AND/OR OBSTRUCTIONS TO VISIBILITY.

WYZ001-221300-
YELLOWSTONE NATIONAL PARK

CITY           SKY/WX    TMP DP  RH WIND       PRES   REMARKS
LK YELLOWSTONE   N/A     32  32 100 CALM      29.99R
6HR MIN TEMP:  32; 6HR MAX TEMP:  37; 6HR PCP:  0.19;

W YELLOWSTONE  NOT AVBL

$$
WYZ002>013-054>058-071-098>099-221300-
NORTHERN WYOMING

CITY           SKY/WX    TMP DP  RH WIND       PRES   REMARKS
JACKSON        CLOUDY    37  36  93 S9        29.97S WCI  31
CODY           FAIR      48  36  63 SW10      29.83R
GREYBULL       FAIR      35  33  92 W3        29.82R
6HR MIN TEMP:  35; 6HR MAX TEMP:  40;

WORLAND        FAIR      34  33  96 N3        29.80R
6HR MIN TEMP:  33; 6HR MAX TEMP:  40;

SHERIDAN       CLOUDY    34  33  96 NW7       29.78F WCI  28
6HR MIN TEMP:  33; 6HR MAX TEMP:  37;

BUFFALO        FAIR      45  36  70 S18       29.77F
6HR MIN TEMP:  37; 6HR MAX TEMP:  50;

GILLETTE       FAIR      33  30  88 S25G32    29.84F WCI  20
6HR MIN TEMP:  33; 6HR MAX TEMP:  35;

HULETT         FAIR      43  32  65 SW12      29.86S
NEWCASTLE      FAIR      36  28  75 SE16G23   29.95F WCI  26

$$
WYZ014>020-022>026-101>103-221300-
CENTRAL WYOMING

CITY           SKY/WX    TMP DP  RH WIND       PRES   REMARKS
BIG PINEY      CLOUDY    37  32  82 CALM      29.97R
6HR MIN TEMP:  31; 6HR MAX TEMP:  38;

PINEDALE       PTSUNNY   34  32  93 CALM      29.98R
DUBOIS         FAIR      37  34  87 NW9G16    29.91R WCI  31
LANDER         FAIR      40  34  79 SE6       29.83F
6HR MIN TEMP:  34; 6HR MAX TEMP:  45;

RIVERTON       FAIR      36  34  92 W6        29.86S WCI  31
6HR MIN TEMP:  34; 6HR MAX TEMP:  41;

CASPER         FAIR      32  31  96 N5        29.88S WCI  27
6HR MIN TEMP:  30; 6HR MAX TEMP:  38;

DOUGLAS        FAIR      35  30  82 SE22      29.93S WCI  23
6HR MIN TEMP:  35; 6HR MAX TEMP:  44;


$$
WYZ021-027>030-104>119-221300-
SOUTHERN WYOMING

CITY           SKY/WX    TMP DP  RH WIND       PRES   REMARKS
EVANSTON       LGT RAIN  42  35  76 NE3       29.99R
6HR MIN TEMP:  39; 6HR MAX TEMP:  51; 6HR PCP: TRACE;

KEMMERER         N/A     37  34  87 NW6       30.00R WCI  33
FORT BRIDGER   FAIR      40  36  86 W6        30.02R
ROCK SPRINGS   FAIR      44  29  55 SW3       29.99R
6HR MIN TEMP:  41; 6HR MAX TEMP:  49;

DIXON            N/A     49  29  47 NE5       30.02F
RAWLINS        FAIR      51  24  34 SW18G26   29.96S
6HR MIN TEMP:  39; 6HR MAX TEMP:  52;

SARATOGA       FAIR      50  25  37 S8G21     30.02R
LARAMIE        FAIR      37  26  64 S9        30.00S WCI  30
6HR MIN TEMP:  31; 6HR MAX TEMP:  39;

CHEYENNE       FAIR      30  26  85 VRB7      30.03F WCI  23
6HR MIN TEMP:  30; 6HR MAX TEMP:  39;

TORRINGTON     FAIR      35  28  75 SE16      30.01F WCI  25
6HR MIN TEMP:  32; 6HR MAX TEMP:  39;

PINE BLUFFS    FAIR      32  25  74 S17G23    30.05F WCI  21

$$




USA.gov is the U.S. government's official web portal to all federal, state and local government web resources and services.